星链-35963(STARLINK-35963)

导读

STARLINK-35963是美国SpaceX公司星链(Starlink)卫星互联网星座的一员,于2025年11月21日发射。它运行在低地轨道,是星链扩展全球高速低延迟互联网覆盖的组成部分,为偏远地区、移动场景(航海、航空等)提供宽带网络接入,助力缩小全球数字鸿沟,也可支撑应急通信等特殊场景需求。星链计划最终将部署数万颗低轨卫星,该卫星的入轨进一步增强了星座的服务容量与覆盖能力。

基本信息
目录编号:
66585
目录名称:
STARLINK-35963
国际标识:
2025-268AE
轨道中心:
EARTH
卫星名称:
星链-35963
卫星全名:
星链-35963(STARLINK-35963)
卫星状态:
在轨 (已飞行204 天)
发射日期:
2025-11-21 UTC
国别 :
美国 (US)
星等 :
--
轨道信息
数据来源 国际轨道数据
星历时间: 2026-06-12T14:58:49+0800
1天前
查看轨道信息
半长轴: 6861.18km
偏心率: 0.0001976
轨道倾角: 43.002°
近地点辐角 286.540°
升交点赤经 173.165°
平近点角 73.524°
近地点: 481.687km
远地点: 484.399km
周期: 94.267分钟
每日圈数: 15.275821
详细信息
固有亮度:
5
最大亮度:
2.5
卫星平台:
Starlink V1.0
覆盖范围:
全球
运营商:
太空探索技术公司
运营商所在国:
美国
制造商(研发单位):
太空探索技术公司
制造商所在国:
美国
使用方式:
暂无
卫星简介
Starlink 计划是 SpaceX 推出的全球卫星互联网项目,通过发射低轨道卫星,为全球尤其是偏远地区提供高速、低延迟的互联网服务。自 2019 年起,Starlink 已部署数千颗卫星,旨在缩小全球数字鸿沟,推动互联网普及。该项目还为军事、航空等行业提供通信支持,带来广泛经济效益。
2D轨道图
3D轨道图
轨道高度分析图
轨道倾角分析图
轨道综合分析图
查看轨道综合分析图